Kecskemet, Hungary

2:09 AM CET on March 24, 2017 (GMT +0100)
Kecskemet

Weather History for LHKE - January, 2013

Change the Weather History Date:

Wednesday, January 2, 2013

  Actual Average (LHBP) Record (LHBP)
Temperature  
Mean Temperature 30 °F -  
Max Temperature 35 °F 35 °F 71 °F (2002)
Min Temperature 24 °F 24 °F 14 °F (2016)
Degree Days  
Heating Degree Days 36    
Moisture  
Dew Point 28 °F    
Average Humidity 100    
Maximum Humidity 100    
Minimum Humidity 93    
Precipitation  
Precipitation 0.00 in - - ()
Sea Level Pressure  
Sea Level Pressure 30.22 in    
Wind  
Wind Speed 3 mph ()    
Max Wind Speed 7 mph    
Max Gust Speed -    
Visibility 0.6 miles    
Events Fog    
Averages and records for this station are not official NWS values.
T = Trace of Precipitation, MM = Missing Value Source: Averaged Metar Reports

Daily Weather History Graph

Daily Weather History Graph

Search for Another Location

Airport or City:

Trip Planner

Search our weather history database for the weather conditions in past years. The results will help you decide how hot, cold, wet, or windy it might be!

Date:

Astronomy

Jan. 02, 2013 Rise Set
Actual Time 7:26 AM CET 4:03 PM CET
Civil Twilight 6:51 AM CET 4:39 PM CET
Nautical Twilight 6:12 AM CET 5:17 PM CET
Astronomical Twilight 5:35 AM CET 5:54 PM CET
Moon 9:39 PM CET (1/2) 9:39 AM CET (1/2)
Length of Visible Light 9h 47m
Length of Day
8h 37m
Waning Gibbous, 77% of the Moon is Illuminated
Jan 2
Waning Gibbous
Jan 5
Last Quarter
Jan 11
New
Jan 19
First Quarter
Jan 27
Full

Hourly Weather History & Observations

Time (CET) Temp. Windchill Dew Point Humidity Pressure Visibility Wind Dir Wind Speed Gust Speed Precip Events Conditions
12:15 AM 26.6 °F 21.3 °F 26.6 °F 100% 30.06 in 0.1 mi ESE 4.5 mph - N/A Fog Light Freezing Fog
12:45 AM 26.6 °F 21.3 °F 26.6 °F 100% 30.06 in 0.1 mi SE 4.5 mph - N/A Fog Light Freezing Fog
1:15 AM 26.6 °F 21.3 °F 26.6 °F 100% 30.06 in 0.1 mi ESE 4.5 mph - N/A Fog Light Freezing Fog
1:45 AM 26.6 °F - 26.6 °F 100% 30.09 in 0.1 mi ESE 2.2 mph - N/A Fog Light Freezing Fog
2:15 AM 26.6 °F - 26.6 °F 100% 30.09 in 0.1 mi ESE 2.2 mph - N/A Fog Light Freezing Fog
2:45 AM 26.6 °F - 26.6 °F 100% 30.09 in 0.1 mi ESE 2.2 mph - N/A Fog Light Freezing Fog
3:15 AM 26.6 °F 21.3 °F 26.6 °F 100% 30.09 in 0.1 mi SE 4.5 mph - N/A Fog Light Freezing Fog
3:45 AM 26.6 °F 21.3 °F 26.6 °F 100% 30.09 in 0.1 mi SE 4.5 mph - N/A Fog Light Freezing Fog
4:15 AM 26.6 °F - 26.6 °F 100% 30.09 in 0.1 mi SSE 2.2 mph - N/A Fog Light Freezing Fog
4:45 AM 24.8 °F - 24.8 °F 100% 30.09 in 0.1 mi SSE 2.2 mph - N/A Fog Light Freezing Fog
5:15 AM 24.8 °F - 24.8 °F 100% 30.09 in 0.1 mi ESE 2.2 mph - N/A Fog Light Freezing Fog
5:45 AM - - - N/A% - 0.5 mi SE 2.2 mph - N/A Fog Light Freezing Fog
6:15 AM 24.8 °F - 24.8 °F 100% 30.12 in 0.1 mi SE 2.2 mph - N/A Fog Light Freezing Fog
6:45 AM 24.8 °F - 24.8 °F 100% 30.12 in 0.1 mi Calm Calm - N/A Fog Light Freezing Fog
7:15 AM 24.8 °F - 24.8 °F 100% 30.12 in 0.1 mi Calm Calm - N/A Fog Light Freezing Fog
7:45 AM 24.8 °F - 24.8 °F 100% 30.15 in 0.1 mi Calm Calm - N/A Fog Light Freezing Fog
8:15 AM 24.8 °F - 24.8 °F 100% 30.15 in 0.1 mi Calm Calm - N/A Fog Light Freezing Fog
8:45 AM - - - N/A% - 0.5 mi Variable 4.5 mph - N/A Fog Light Freezing Fog
9:15 AM 24.8 °F - 24.8 °F 100% 30.18 in 0.1 mi Calm Calm - N/A Fog Light Freezing Fog
9:45 AM 26.6 °F - 26.6 °F 100% 30.18 in 0.1 mi Calm Calm - N/A Fog Light Freezing Fog
10:05 AM - - - N/A% - 0.4 mi Variable 4.5 mph - N/A Fog Light Freezing Fog
10:15 AM 26.6 °F - 26.6 °F 100% 30.21 in 0.1 mi NW 2.2 mph - N/A Fog Light Freezing Fog
10:36 AM 26.6 °F - 26.6 °F 100% 30.21 in 0.2 mi WNW 2.2 mph - N/A Fog Light Freezing Fog
10:45 AM 26.6 °F - 26.6 °F 100% 30.21 in 0.2 mi WNW 2.2 mph - N/A Fog Light Freezing Fog
11:05 AM 28.4 °F 23.4 °F 28.4 °F 100% 30.21 in 0.4 mi WNW 4.5 mph - N/A Fog Light Freezing Fog
11:15 AM 28.4 °F 23.4 °F 28.4 °F 100% 30.21 in 0.4 mi WNW 4.5 mph - N/A Fog Light Freezing Fog
11:25 AM 28.4 °F 23.4 °F 28.4 °F 100% 30.21 in 0.6 mi WNW 4.5 mph - N/A   Overcast
11:33 AM - - - N/A% - 0.9 mi WNW 4.5 mph - N/A   Overcast
11:45 AM - - - N/A% - 0.9 mi West 4.5 mph - N/A   Overcast
12:15 PM 28.4 °F - 28.4 °F 100% 30.21 in 0.7 mi NW 2.2 mph - N/A   Overcast
12:45 PM 28.4 °F - 28.4 °F 100% 30.21 in 0.7 mi NW 2.2 mph - N/A   Overcast
1:15 PM 35.6 °F 31.8 °F 35.6 °F 100% 30.21 in 0.7 mi NNW 4.5 mph - N/A   Overcast
1:45 PM - - - N/A% 30.24 in 0.7 mi NW 4.5 mph - N/A   Overcast
2:15 PM 30.2 °F 25.5 °F 30.2 °F 100% 30.24 in 0.7 mi WNW 4.5 mph - N/A   Overcast
2:45 PM - - - N/A% - 0.9 mi West 4.5 mph - N/A   Mostly Cloudy
3:00 PM - - - N/A% - 0.9 mi West 4.5 mph - N/A   Mostly Cloudy
3:15 PM 30.2 °F 25.5 °F 30.2 °F 100% 30.24 in 0.7 mi WNW 4.5 mph - N/A   Overcast
3:32 PM 30.2 °F - 30.2 °F 100% 30.27 in 0.9 mi West 2.2 mph - N/A   Overcast
3:45 PM 30.2 °F - 30.2 °F 100% 30.27 in 0.9 mi West 2.2 mph - N/A   Overcast
4:15 PM 30.2 °F - 30.2 °F 100% 30.27 in 0.6 mi West 2.2 mph - N/A   Overcast
4:45 PM 30.2 °F - 30.2 °F 100% 30.30 in 0.7 mi West 2.2 mph - N/A   Overcast
5:15 PM 30.2 °F 25.5 °F 30.2 °F 100% 30.30 in 0.7 mi West 4.5 mph - N/A   Overcast
5:45 PM - - - N/A% - 0.9 mi West 6.7 mph - N/A   Mostly Cloudy
6:15 PM 30.2 °F - 30.2 °F 100% 30.33 in 0.6 mi WSW 2.2 mph - N/A   Mostly Cloudy
6:45 PM 30.2 °F - 30.2 °F 100% 30.33 in 0.6 mi WSW 2.2 mph - N/A   Mostly Cloudy
7:15 PM 30.2 °F 23.5 °F 30.2 °F 100% 30.36 in 0.7 mi West 6.7 mph - N/A   Mostly Cloudy
7:45 PM 30.2 °F 23.5 °F 30.2 °F 100% 30.36 in 0.7 mi West 6.7 mph - N/A   Mostly Cloudy
8:15 PM 30.2 °F 23.5 °F 30.2 °F 100% 30.36 in 0.9 mi West 6.7 mph - N/A   Mostly Cloudy
8:45 PM - - - N/A% - 1.9 mi West 6.7 mph - N/A   Mist
9:15 PM 30.2 °F 23.5 °F 30.2 °F 100% 30.39 in 1.2 mi West 6.7 mph - N/A   Mostly Cloudy
9:45 PM 32.0 °F 25.7 °F 32.0 °F 100% 30.39 in 1.6 mi West 6.7 mph - N/A   Overcast
10:15 PM 32.0 °F 25.7 °F 32.0 °F 100% 30.39 in 1.6 mi West 6.7 mph - N/A   Overcast
10:35 PM 32.0 °F 25.7 °F 32.0 °F 100% 30.39 in 1.9 mi West 6.7 mph - N/A   Overcast
10:45 PM 30.2 °F 23.5 °F 30.2 °F 100% 30.39 in 1.9 mi West 6.7 mph - N/A   Overcast
11:15 PM 32.0 °F 25.7 °F 30.2 °F 93% 30.42 in 1.9 mi West 6.7 mph - N/A   Overcast
11:45 PM - - - N/A% - 1.9 mi North - - N/A Fog Light Freezing Fog